Baltimore, MD

2:35 PM EDT on October 22, 2017 (GMT -0400)
Baltimore-Washington International

Weather History for KBWI - November, 2013

Change the Weather History Date:

Friday, November 1, 2013

  Actual Average Record
Temperature  
Mean Temperature 64 °F 51 °F  
Max Temperature 73 °F 62 °F 86 °F (1950)
Min Temperature 54 °F 40 °F 29 °F (1954)
Degree Days  
Heating Degree Days 1 14  
Month to date heating degree days 1 14  
Since 1 July heating degree days 290 361  
Cooling Degree Days 0 0  
Month to date cooling degree days 0 0  
Year to date cooling degree days 1339 1163  
Growing Degree Days 14 (Base 50)    
Moisture  
Dew Point 58 °F    
Average Humidity 79    
Maximum Humidity 100    
Minimum Humidity 57    
Precipitation  
Precipitation 0.17 in 0.11 in 1.76 in (1932)
Month to date precipitation 0.17 0.11  
Year to date precipitation 35.01 35.32  
Snow  
Snow 0.00 in 0.00 in T in (1993)
Month to date snowfall 0.0 0.0  
Since 1 July snowfall 0.0 0.0  
Snow Depth 0.00 in    
Sea Level Pressure  
Sea Level Pressure 29.65 in    
Wind  
Wind Speed 7 mph (SW)    
Max Wind Speed 20 mph    
Max Gust Speed 30 mph    
Visibility 8 miles    
Events Rain    
T = Trace of Precipitation, MM = Missing Value Source: NWS Daily Summary

Daily Weather History Graph

Daily Weather History Graph

Search for Another Location

Airport or City:

Trip Planner

Search our weather history database for the weather conditions in past years. The results will help you decide how hot, cold, wet, or windy it might be!

Date:

Astronomy

Nov. 01, 2013 Rise Set
Actual Time 7:34 AM EDT 6:05 PM EDT
Civil Twilight 7:06 AM EDT 6:33 PM EDT
Nautical Twilight 6:35 AM EDT 7:04 PM EDT
Astronomical Twilight 6:03 AM EDT 7:35 PM EDT
Moon 5:25 AM EDT (11/1) 4:56 PM EDT (11/1)
Length of Visible Light 11h 26m
Length of Day
10h 30m
Waning Crescent, 4% of the Moon is Illuminated
Nov 1
Waning Crescent
Nov 3
New
Nov 10
First Quarter
Nov 17
Full
Nov 25
Last Quarter

Hourly Weather History & Observations

Time (EDT) Temp. Dew Point Humidity Pressure Visibility Wind Dir Wind Speed Gust Speed Precip Events Conditions
12:54 AM 66.0 °F 55.9 °F 70% 29.76 in 10.0 mi SSW 9.2 mph 17.3 mph N/A   Overcast
1:54 AM 66.9 °F 57.0 °F 70% 29.72 in 10.0 mi SSW 9.2 mph 19.6 mph N/A   Overcast
2:54 AM 68.0 °F 59.0 °F 73% 29.68 in 10.0 mi South 11.5 mph 19.6 mph N/A   Overcast
3:54 AM 69.1 °F 59.0 °F 70% 29.66 in 10.0 mi South 10.4 mph 20.7 mph N/A   Overcast
4:54 AM 69.1 °F 61.0 °F 75% 29.63 in 10.0 mi SSW 15.0 mph 20.7 mph 0.00 in   Overcast
5:07 AM 69.8 °F 60.8 °F 73% 29.62 in 10.0 mi South 15.0 mph 25.3 mph N/A   Overcast
5:34 AM 71.6 °F 60.8 °F 69% 29.61 in 10.0 mi SSW 17.3 mph 29.9 mph N/A   Overcast
5:54 AM 71.1 °F 61.0 °F 70% 29.60 in 10.0 mi SSW 13.8 mph 27.6 mph N/A   Overcast
6:54 AM 71.1 °F 62.1 °F 73% 29.60 in 10.0 mi SSW 13.8 mph 23.0 mph 0.00 in   Overcast
7:45 AM 71.6 °F 60.8 °F 69% 29.60 in 6.0 mi SSW 13.8 mph 24.2 mph 0.00 in Rain Light Rain
7:54 AM 69.1 °F 62.1 °F 78% 29.61 in 8.0 mi SSW 13.8 mph 24.2 mph 0.01 in Rain Light Rain
8:54 AM 68.0 °F 62.1 °F 81% 29.65 in 8.0 mi WNW 18.4 mph 25.3 mph 0.01 in   Overcast
9:07 AM 64.4 °F 57.2 °F 77% 29.68 in 2.5 mi WNW 17.3 mph 23.0 mph 0.00 in Rain Rain
9:19 AM 60.8 °F 57.2 °F 88% 29.68 in 1.8 mi West 15.0 mph 24.2 mph 0.09 in Rain Rain
9:30 AM 60.8 °F 57.2 °F 88% 29.68 in 2.0 mi West 11.5 mph 21.9 mph 0.11 in Rain Rain
9:46 AM 60.8 °F 57.2 °F 88% 29.67 in 3.0 mi West 9.2 mph - 0.12 in Rain Light Rain
9:54 AM 60.1 °F 57.9 °F 93% 29.67 in 4.0 mi West 8.1 mph - 0.13 in Rain Light Rain
10:12 AM 60.8 °F 57.2 °F 88% 29.67 in 5.0 mi SW 5.8 mph - 0.02 in Rain Light Rain
10:54 AM 62.1 °F 57.9 °F 86% 29.65 in 10.0 mi WSW 4.6 mph - 0.02 in   Mostly Cloudy
11:54 AM 68.0 °F 59.0 °F 73% 29.65 in 10.0 mi SW 6.9 mph - N/A   Mostly Cloudy
12:54 PM 69.1 °F 59.0 °F 70% 29.65 in 10.0 mi SW 9.2 mph - N/A   Mostly Cloudy
1:54 PM 69.1 °F 57.9 °F 68% 29.64 in 10.0 mi WSW 10.4 mph - N/A   Mostly Cloudy
2:54 PM 69.1 °F 57.0 °F 65% 29.61 in 10.0 mi SSW 3.5 mph - N/A   Mostly Cloudy
3:54 PM 71.1 °F 55.9 °F 59% 29.62 in 10.0 mi Variable 4.6 mph - N/A   Mostly Cloudy
4:54 PM 71.1 °F 55.9 °F 59% 29.62 in 10.0 mi SSE 4.6 mph - N/A   Scattered Clouds
5:54 PM 69.1 °F 55.9 °F 63% 29.62 in 10.0 mi South 3.5 mph - N/A   Scattered Clouds
6:54 PM 66.0 °F 57.9 °F 75% 29.63 in 10.0 mi SSE 3.5 mph - N/A   Scattered Clouds
7:54 PM 61.0 °F 57.0 °F 87% 29.64 in 10.0 mi East 4.6 mph - N/A   Scattered Clouds
8:54 PM 59.0 °F 57.0 °F 93% 29.66 in 10.0 mi Calm Calm - N/A   Partly Cloudy
9:54 PM 57.9 °F 55.9 °F 93% 29.66 in 10.0 mi Calm Calm - N/A   Partly Cloudy
10:54 PM 55.9 °F 55.0 °F 97% 29.66 in 10.0 mi Calm Calm - N/A   Partly Cloudy
11:54 PM 55.9 °F 55.0 °F 97% 29.65 in 10.0 mi Calm Calm - N/A   Partly Cloudy